GFSMW_850_spd_135.txt.gz
Wind_Speed
5 5 6 8 9 8 10 11 13 14 12 12 12 10 11 9 9 11 16 16 17 18 16 16 16 16 17 19 20 16 19 24 23 26 29 30 33 35 35 37 42 42 37
7 5 5 6 7 7 8 10 11 13 14 13 13 12 11 10 9 12 13 16 17 18 18 19 19 18 18 19 18 16 16 18 21 25 27 25 27 31 37 47 52 45 43
9 7 4 3 6 8 9 11 12 14 15 15 14 14 11 10 11 14 13 16 17 17 19 19 19 21 19 16 17 17 17 19 18 17 18 13 19 23 26 33 31 44 46
9 7 4 3 5 7 8 9 10 12 13 13 12 14 13 14 15 15 16 18 17 18 18 19 21 22 21 21 19 15 18 17 21 20 20 30 29 23 27 25 24 35 43
10 7 4 4 5 7 7 9 10 12 14 16 15 13 13 13 14 16 19 17 18 17 16 18 22 21 22 23 24 23 21 21 22 21 19 21 26 34 28 27 32 32 32
10 7 5 4 5 6 8 9 10 12 14 16 16 15 15 15 15 17 17 16 16 16 16 21 22 24 23 22 24 25 26 26 25 28 26 22 22 23 23 25 31 34 32
12 8 5 3 4 6 8 8 10 11 14 15 15 15 15 15 14 16 16 18 17 17 18 21 22 22 23 24 24 25 26 27 28 28 32 30 25 26 27 28 37 32 31
11 9 6 5 4 4 6 7 9 10 12 14 14 15 15 15 13 15 16 15 17 17 19 21 20 20 21 22 23 25 26 26 28 29 30 34 35 32 28 29 28 31 38
14 11 8 6 4 3 5 6 7 8 11 12 13 14 15 15 14 15 15 15 16 17 18 19 19 19 20 20 21 22 24 25 27 30 32 34 35 36 34 33 31 29 30
15 12 9 7 5 5 4 4 5 6 9 10 11 12 14 15 15 14 16 18 17 18 18 18 19 19 19 20 20 20 21 23 25 26 27 29 33 33 32 35 34 32 32
16 14 10 8 6 4 4 3 3 5 8 9 9 11 12 13 14 15 17 20 19 19 19 20 20 21 21 20 20 19 18 19 21 22 24 28 31 31 33 32 35 33 31
17 15 12 9 7 5 4 2 3 6 8 8 8 10 11 12 13 14 15 18 19 19 21 21 22 22 23 23 21 20 21 21 23 23 22 23 26 29 30 32 38 35 32
17 15 13 10 7 6 5 3 3 4 5 6 6 8 10 12 13 13 14 16 18 19 20 21 24 24 25 25 21 20 20 20 22 22 21 22 24 24 27 29 29 31 28
18 15 12 9 7 6 5 4 4 4 5 4 5 7 9 11 12 13 14 15 16 17 18 20 20 21 25 27 24 20 21 22 22 21 18 17 19 18 25 27 28 30 28
16 14 12 10 8 6 5 5 4 4 4 3 5 6 8 9 10 10 11 13 14 16 17 18 19 21 23 23 25 24 24 24 24 23 20 17 11 6 13 22 26 29 27
15 14 12 11 9 7 6 5 4 3 3 4 4 5 6 8 9 10 11 12 13 14 17 18 19 24 25 22 22 25 28 30 31 31 26 23 15 7 8 7 10 16 22
16 14 14 12 10 8 7 6 6 5 4 5 5 6 7 8 9 10 11 12 13 13 16 19 20 23 25 23 24 25 25 28 31 34 34 31 24 18 14 10 9 7 3
17 16 16 13 11 9 8 8 6 5 4 5 5 7 7 8 10 10 10 11 13 16 17 20 22 23 26 25 25 26 27 29 30 30 33 33 31 25 22 22 24 24 23
21 20 17 15 13 12 10 8 7 6 6 6 6 7 7 7 9 9 10 11 12 15 18 21 23 25 26 27 26 26 28 29 30 31 32 33 32 30 28 28 28 26 28
19 18 16 15 13 11 10 8 8 7 7 7 7 7 7 8 9 9 11 12 13 14 14 17 21 24 27 27 29 28 26 29 29 29 31 34 34 33 29 29 30 31 32
17 16 16 15 13 11 9 9 9 9 8 8 8 7 7 8 9 10 11 11 12 14 14 15 18 22 25 26 26 27 28 27 29 31 32 33 32 31 31 30 32 30 25
18 16 15 15 14 12 10 11 11 10 9 8 7 8 9 9 10 10 12 14 13 13 14 15 16 19 22 24 24 25 25 25 27 30 30 30 29 30 31 31 28 27 27
17 15 14 13 11 11 10 11 11 9 8 7 7 8 9 9 11 11 12 12 13 13 13 14 16 18 21 24 26 26 26 25 24 25 27 28 30 30 31 32 30 30 32
16 15 15 15 13 11 10 10 10 10 8 7 8 8 9 9 12 10 12 13 12 12 13 14 16 17 19 23 25 26 26 26 25 22 27 30 31 33 33 34 35 35 35
16 14 14 14 13 12 11 11 10 9 8 8 7 7 7 7 8 10 12 11 15 14 14 14 14 18 20 23 22 23 25 25 25 23 24 29 32 34 35 36 35 36 34
15 14 14 14 14 12 11 10 9 8 9 8 7 7 5 6 6 5 10 14 16 16 15 15 15 12 17 20 21 19 22 23 22 20 24 28 29 31 32 33 34 35 34

GFSMW_850_spd_138.txt.gz
Wind_Speed
8 6 3 5 5 7 9 11 12 12 13 12 11 10 11 7 10 11 16 18 18 17 16 16 15 16 17 16 13 13 13 13 14 19 22 23 26 29 32 32 36 38 40
10 5 2 2 4 6 8 9 10 12 13 12 12 12 10 8 8 12 12 17 19 19 20 20 19 19 18 17 16 13 14 15 7 14 14 17 24 27 30 30 29 33 40
13 11 5 1 4 5 6 6 7 10 12 11 10 9 6 6 11 14 15 18 18 19 18 20 21 21 19 19 19 15 13 17 15 7 11 8 7 16 17 19 24 26 27
14 14 8 4 0 3 6 8 8 10 12 14 14 14 14 14 14 15 17 16 16 17 15 20 22 23 23 20 20 19 18 16 19 17 12 14 22 18 23 24 27 28 28
13 12 9 7 4 3 4 7 6 9 12 14 15 16 16 14 14 16 17 16 15 13 16 22 24 25 24 24 23 24 23 19 19 18 21 24 22 18 23 34 31 32 29
17 15 11 8 5 3 3 6 4 8 11 13 15 16 16 17 16 19 19 19 17 17 19 22 22 21 22 23 24 24 25 23 22 22 21 19 19 18 17 22 32 30 30
20 17 13 11 7 4 4 4 4 6 9 11 13 15 16 16 16 18 19 19 20 21 22 23 22 21 21 21 22 23 23 23 23 22 23 24 25 27 29 26 31 31 28
22 19 15 10 9 6 5 4 3 5 7 9 11 12 13 13 14 15 16 17 18 18 20 21 20 21 21 20 21 22 22 21 22 23 23 26 27 27 27 27 26 36 38
24 19 16 14 10 8 5 5 3 4 7 8 9 11 12 12 13 14 15 16 18 18 19 20 19 21 22 22 21 21 21 22 21 21 23 25 26 27 27 28 26 27 35
24 22 18 16 12 8 5 3 3 3 5 6 7 9 10 10 11 12 14 16 17 18 19 21 21 20 22 21 20 21 21 22 22 22 25 26 27 26 28 28 30 31 34
25 23 21 17 13 9 5 2 1 2 3 4 6 6 8 8 9 11 12 14 15 17 20 21 22 23 25 25 20 20 22 23 23 24 24 23 24 22 27 26 31 32 32
23 24 22 20 15 10 7 5 1 2 3 4 5 6 6 8 9 10 12 13 15 16 17 19 20 22 26 27 21 23 24 23 23 25 24 23 21 22 27 25 30 29 33
21 22 19 17 14 11 8 6 4 3 2 3 2 1 3 6 8 11 13 13 14 15 16 18 20 21 23 25 24 24 25 22 21 22 23 22 22 20 18 18 19 26 29
14 17 17 15 13 11 9 6 5 4 2 2 3 1 3 4 6 8 9 9 11 14 15 16 19 20 22 22 24 24 27 26 24 22 20 23 22 17 18 16 16 23 28
22 18 16 16 13 12 10 8 6 6 5 3 2 1 2 4 5 6 7 8 10 14 16 15 18 20 22 24 22 20 22 26 28 27 24 23 19 13 14 16 17 16 17
20 19 16 16 14 12 11 9 7 6 5 3 2 2 3 4 6 7 8 9 11 12 14 16 17 20 22 20 20 21 22 23 26 31 31 29 24 20 15 14 17 24 19
23 21 19 18 14 13 10 8 7 7 5 3 3 3 5 5 6 8 9 11 12 12 15 16 16 19 22 20 20 22 21 24 27 31 33 31 29 24 19 19 20 26 30
27 24 21 18 16 14 13 10 8 7 5 4 4 5 5 6 7 7 8 10 11 13 16 17 18 19 22 21 19 21 24 25 27 29 33 33 31 28 25 23 22 25 27
25 22 17 18 17 14 11 10 9 7 6 6 5 5 6 6 7 8 9 10 11 12 15 17 18 21 22 23 21 20 22 26 27 29 30 32 32 30 27 25 26 25 25
16 15 17 17 13 14 12 11 9 8 7 7 7 6 7 7 8 9 10 11 12 13 13 15 18 19 21 24 24 23 23 25 27 27 28 31 31 32 29 29 29 30 28
16 16 16 15 14 13 11 11 9 8 8 7 7 7 8 8 9 11 12 11 12 12 13 13 15 18 20 21 25 25 23 24 26 27 30 32 30 30 31 30 31 31 26
16 15 16 15 14 13 10 11 10 10 9 8 8 9 9 9 9 10 11 13 11 11 11 10 14 16 18 20 23 24 23 21 25 29 28 27 28 31 31 32 29 27 27
15 14 14 16 15 12 11 12 12 10 9 9 9 9 10 9 9 6 7 8 8 8 10 12 12 15 18 20 21 23 20 22 23 21 23 24 28 29 32 34 34 32 34
17 16 15 14 14 12 11 11 12 10 9 9 8 7 8 11 8 8 11 11 9 10 7 10 14 15 18 22 24 25 22 21 21 20 21 22 24 29 31 34 37 37 37
18 16 16 15 15 14 12 12 11 10 9 8 7 6 7 7 7 9 12 14 15 15 13 9 11 17 20 22 20 20 24 22 19 18 22 26 29 32 32 32 33 36 36
18 15 16 15 16 15 14 12 12 12 12 12 10 8 8 6 6 7 8 12 14 16 17 14 13 15 16 18 18 16 17 18 17 22 26 28 28 29 29 30 31 32 34

GFSMW_850_spd_141.txt.gz
Wind_Speed
22 17 11 6 5 4 6 8 7 8 6 5 5 5 8 6 7 12 13 16 17 17 17 17 16 14 15 15 14 14 14 11 11 12 11 19 23 25 26 27 30 32 34
24 18 12 7 3 3 1 6 8 9 9 10 9 5 2 5 8 12 12 16 16 17 19 19 19 19 16 15 14 15 14 13 7 9 10 9 14 17 21 22 23 26 25
29 23 14 7 4 2 1 3 5 7 9 10 10 8 4 5 9 14 15 16 16 19 18 20 21 22 21 20 18 15 13 16 13 6 5 5 5 15 19 19 22 19 20
27 23 13 9 6 3 4 4 5 6 8 10 11 13 15 15 17 18 19 18 18 20 21 22 22 21 20 19 18 17 17 14 16 13 16 13 13 8 17 22 22 26 30
29 24 18 15 8 6 7 4 4 5 7 8 10 12 13 14 15 17 18 18 18 19 21 21 21 20 19 19 18 16 15 15 15 16 19 20 25 20 18 31 31 34 31
29 24 21 16 11 10 9 7 4 3 4 7 9 11 13 15 16 18 20 21 22 22 23 23 21 20 19 18 18 17 15 14 12 13 16 17 12 16 16 23 39 39 43
31 29 22 17 14 11 9 8 4 4 3 5 7 9 11 13 15 17 19 20 21 22 24 23 22 21 20 19 17 16 15 14 13 13 14 16 20 20 21 23 32 37 45
32 27 21 21 18 13 12 8 4 3 2 2 4 6 9 11 12 13 15 16 18 20 21 21 21 21 20 19 18 15 15 15 14 14 13 14 16 19 23 26 26 37 40
29 24 24 23 18 14 11 8 4 2 1 1 3 5 7 8 10 11 12 13 15 16 17 19 20 22 23 21 18 18 18 18 16 15 15 17 18 18 19 22 24 29 33
23 27 25 21 16 13 10 9 7 4 2 2 4 5 7 7 8 9 11 12 13 13 15 17 19 22 23 22 21 22 21 19 18 17 18 18 15 17 21 23 26 29 35
8 12 19 17 11 9 8 9 8 6 3 3 3 4 7 8 9 9 10 11 12 13 14 16 16 18 20 20 21 25 25 23 22 19 19 19 18 17 14 20 26 31 33
25 29 24 19 15 8 7 7 6 5 3 2 3 3 4 5 7 8 9 9 11 10 12 14 16 17 18 18 19 23 25 26 24 22 19 20 20 16 14 14 16 19 23
30 32 26 23 13 8 10 10 7 4 5 8 5 2 1 3 4 5 6 8 9 10 11 14 16 17 18 18 18 19 22 25 26 25 23 23 23 20 19 17 20 20 22
34 29 26 21 22 21 19 15 9 8 9 10 6 4 2 0 1 2 4 6 8 9 11 13 16 16 17 19 19 21 21 22 24 25 24 23 24 19 18 19 21 22 21
34 34 30 25 25 24 20 14 12 14 10 6 5 4 2 1 1 2 4 6 8 10 12 13 15 16 16 19 18 19 20 22 24 26 26 24 21 16 15 17 22 25 23
33 31 25 26 27 25 20 15 14 14 8 6 7 5 3 2 2 3 5 6 8 11 12 13 15 17 18 16 17 19 20 22 24 27 29 27 25 21 17 15 17 23 29
31 28 29 33 28 22 17 15 14 10 8 8 7 4 3 3 4 5 5 7 8 10 12 14 15 17 20 16 17 19 21 22 24 27 30 30 29 25 20 17 17 18 22
31 35 36 32 26 20 16 14 12 10 9 7 5 5 5 5 5 5 6 7 8 10 13 15 16 17 20 18 18 18 20 22 25 26 30 30 30 27 24 19 18 20 22
32 34 32 26 21 17 15 14 13 11 9 7 7 6 6 6 7 7 8 9 8 10 12 14 15 16 18 21 18 17 19 22 24 25 26 28 30 28 24 22 22 21 20
29 29 23 17 16 17 15 14 12 10 9 9 8 8 8 8 8 9 9 10 10 10 11 12 15 16 16 21 22 19 19 23 25 25 27 28 28 30 26 25 26 26 25
21 17 16 17 17 16 15 14 11 10 10 10 9 10 10 10 11 12 11 10 8 7 9 12 13 15 15 18 20 20 19 22 23 24 27 27 25 27 29 27 27 27 23
20 18 18 17 16 15 14 13 12 11 11 11 10 10 10 9 9 9 9 8 5 5 6 9 12 14 15 16 19 18 17 18 19 20 19 20 22 23 26 29 27 27 26
18 18 17 17 16 13 12 13 13 13 13 13 13 13 12 9 7 4 4 3 2 4 8 10 12 14 15 17 21 18 16 16 17 16 15 18 21 23 25 27 29 29 32
16 15 15 17 17 13 12 12 14 13 13 14 13 11 9 8 9 10 9 7 7 7 9 10 12 14 16 19 20 19 18 17 17 16 17 19 22 24 25 27 30 32 32
16 14 13 17 16 13 12 14 14 14 14 12 11 11 9 5 7 7 8 8 10 11 11 12 11 13 17 18 16 16 17 17 16 15 18 22 25 27 28 29 30 31 31
20 15 17 17 17 14 11 13 14 13 12 12 11 11 10 7 4 4 6 9 11 12 14 13 13 14 14 14 13 12 14 13 15 18 23 25 26 27 28 29 29 30 30

GFSMW_850_spd_147.txt.gz
Wind_Speed
24 20 17 14 12 11 9 9 9 9 8 6 3 3 3 2 4 7 9 11 13 14 16 18 19 20 22 23 22 21 20 17 18 21 22 23 22 23 25 25 23 24 27
28 24 20 16 12 11 10 8 9 10 10 8 6 4 1 2 5 7 9 12 14 15 16 17 18 19 19 19 21 22 22 19 17 15 17 17 19 21 23 24 24 26 27
36 29 23 17 13 10 8 8 10 11 11 10 7 4 2 3 5 7 10 13 16 17 18 18 18 18 18 18 17 16 16 18 14 11 8 6 6 18 19 18 18 19 23
36 31 26 19 15 11 9 9 10 9 8 7 5 5 2 2 7 11 13 14 15 16 17 17 17 17 16 15 14 14 14 13 13 6 10 9 12 8 19 23 19 21 20
40 34 25 20 15 10 10 10 8 7 6 6 5 3 2 5 7 9 11 13 14 15 16 17 17 17 16 15 13 11 10 11 11 11 12 12 16 16 17 28 35 34 28
35 30 24 19 15 12 9 6 6 7 5 4 3 2 2 4 6 7 9 12 13 13 14 16 16 16 16 16 14 14 12 10 9 11 10 11 8 12 13 24 39 38 40
33 29 25 18 15 12 9 9 8 7 6 4 2 1 3 5 6 8 10 11 12 13 13 14 14 15 15 15 16 14 14 13 11 10 10 11 12 16 21 26 36 38 42
29 27 22 19 16 13 10 8 7 7 5 4 4 4 5 6 7 8 9 10 11 12 11 11 12 12 13 13 14 15 15 13 11 11 11 11 12 16 18 20 23 38 33
26 28 26 25 25 21 16 9 9 9 9 7 7 6 6 6 7 7 8 9 10 10 10 11 10 10 9 10 13 14 15 15 13 13 13 13 13 11 11 15 19 20 24
29 30 31 31 25 22 16 13 12 11 11 10 9 8 6 6 7 7 7 8 8 9 10 10 9 9 9 10 11 13 14 15 15 15 15 15 14 13 11 11 10 11 19
34 36 36 32 29 25 20 15 13 9 8 10 10 8 6 6 6 6 6 8 8 9 9 9 9 8 10 10 11 12 13 14 14 14 15 15 15 15 14 13 14 16 20
29 36 36 36 31 27 22 17 12 9 9 11 9 7 5 5 5 5 6 8 8 8 8 8 9 9 9 10 10 12 13 14 14 14 15 15 15 16 16 17 19 21 21
28 33 35 35 34 30 24 19 14 10 12 11 9 7 6 6 5 6 7 7 7 7 7 7 7 8 8 9 10 12 13 14 15 14 15 17 16 15 17 19 22 24 22
31 33 36 37 37 30 27 24 19 13 11 10 9 7 6 6 6 5 5 5 5 5 6 6 7 6 7 8 9 11 12 13 14 15 14 15 16 16 17 18 19 20 21
30 35 36 36 37 33 30 25 21 13 11 10 8 7 7 7 6 5 3 3 3 4 5 7 8 7 8 7 10 10 11 13 14 14 14 14 13 12 13 14 15 16 18
26 31 30 35 39 36 31 26 21 12 12 11 8 8 9 8 6 4 2 1 2 3 4 6 7 7 7 7 10 11 12 12 13 14 14 14 11 12 11 9 11 12 15
22 27 31 34 37 36 30 26 19 12 14 12 10 10 9 7 5 3 2 1 0 2 4 5 6 8 6 6 8 10 11 11 12 14 15 16 14 11 11 10 9 9 9
18 24 29 32 32 30 27 23 17 16 15 11 11 11 10 8 6 5 3 2 0 2 3 3 5 8 10 7 6 8 9 10 10 13 17 18 17 14 13 11 9 9 10
20 24 29 30 28 31 28 23 17 17 15 13 13 11 9 8 8 7 4 2 1 2 2 3 3 4 7 12 6 6 8 8 9 9 14 17 19 18 12 11 11 11 12
19 22 24 25 28 27 24 22 20 17 16 13 12 11 10 10 9 7 5 1 1 3 4 3 2 3 4 7 10 6 6 8 9 10 11 15 18 19 16 15 15 16 17
17 20 23 26 27 25 26 23 17 16 14 13 13 12 12 12 10 8 5 2 2 4 5 3 2 2 3 7 8 8 8 10 11 11 12 14 15 18 16 16 18 19 15
19 21 25 25 26 26 23 19 16 16 15 15 14 14 15 14 12 9 7 4 3 5 4 3 2 3 5 4 5 8 10 10 10 12 12 13 13 14 13 15 16 15 16
20 20 23 26 25 22 18 16 17 17 18 16 17 16 15 13 11 8 7 6 5 5 3 1 0 2 5 6 5 9 8 10 10 11 11 11 13 14 14 16 16 16 19
22 23 24 24 22 18 16 15 17 19 17 19 19 17 14 13 11 9 9 8 7 6 4 2 2 2 6 9 8 7 8 9 11 11 10 11 13 15 17 17 19 21 23
22 22 23 21 19 19 18 19 20 18 20 20 18 17 15 13 13 12 10 9 10 6 4 3 3 2 4 6 8 8 8 10 10 8 8 10 14 17 20 22 22 22 22
21 21 21 19 20 19 18 19 19 20 22 21 20 17 15 14 13 11 11 10 8 6 4 3 1 2 2 2 5 9 10 10 10 8 11 14 16 18 20 21 22 22 23

GFSMW_850_spd_150.txt.gz
Wind_Speed
25 22 19 17 14 13 11 10 9 7 5 4 3 1 0 2 3 6 8 10 12 14 16 18 19 20 21 22 23 24 22 19 21 23 24 24 24 24 24 26 24 22 16
29 27 23 18 15 13 13 12 10 8 8 7 4 3 1 1 2 4 6 9 12 14 15 16 18 19 19 20 21 22 23 21 20 19 18 15 18 20 17 20 21 19 19
37 32 27 21 17 15 13 11 10 9 9 8 7 6 3 1 3 4 6 9 12 15 16 17 18 19 18 17 18 19 20 21 16 13 8 6 6 18 15 11 11 12 13
36 34 29 24 19 15 12 10 10 9 11 10 7 5 3 2 3 7 10 11 13 14 15 17 17 17 17 16 16 16 16 16 16 7 7 6 10 7 18 13 14 14 15
36 36 29 23 19 14 11 12 12 12 11 8 6 4 4 3 5 7 9 11 12 13 14 15 15 15 15 16 16 16 16 15 14 13 16 11 9 12 13 25 30 30 27
29 31 27 24 18 15 14 13 12 10 8 6 5 5 3 4 5 7 8 10 12 12 12 13 12 12 12 14 15 17 16 14 13 12 12 12 11 14 15 24 38 37 37
30 35 33 27 22 20 16 14 11 8 8 8 7 6 6 6 6 7 10 11 11 11 12 11 10 11 11 12 13 14 14 14 14 14 12 10 10 13 17 22 27 33 44
30 36 32 26 24 21 18 14 13 11 9 10 11 11 9 8 7 7 8 9 10 11 11 11 11 11 12 12 12 11 12 12 11 12 12 12 10 10 12 16 20 26 20
31 35 31 29 27 26 21 17 14 14 14 13 11 8 5 6 5 6 7 7 9 10 10 10 10 11 11 12 11 11 11 10 10 11 11 12 11 10 10 12 13 14 15
32 36 35 33 29 23 19 18 14 13 11 11 9 7 6 5 6 5 5 6 8 9 9 9 10 9 9 10 11 11 11 10 9 10 10 11 11 10 10 10 11 13 14
33 36 36 34 30 26 24 22 17 15 12 11 8 6 4 6 5 3 4 6 6 6 7 8 8 9 9 9 9 10 11 10 10 10 11 10 9 10 9 10 11 13 15
29 34 36 36 33 29 28 22 18 14 12 13 11 8 6 6 4 4 5 5 5 6 6 7 7 8 8 7 8 9 10 11 12 12 12 11 9 9 10 10 12 16 15
25 30 33 35 33 32 30 24 19 17 16 12 7 7 6 6 4 4 5 4 5 5 6 6 7 7 7 7 8 9 11 12 12 13 13 13 12 10 11 12 13 15 15
25 29 30 32 33 34 32 29 26 21 17 12 9 8 7 7 6 5 5 4 4 4 4 5 6 7 6 6 7 9 11 12 13 12 13 14 13 13 13 13 14 15 16
27 30 31 32 34 36 35 32 26 23 18 13 9 8 9 7 7 5 4 3 2 2 3 4 5 6 6 6 7 9 10 11 12 13 13 13 13 12 12 13 14 15 17
21 24 27 30 34 37 39 32 29 25 18 12 8 10 10 9 7 5 3 2 2 1 2 3 6 7 7 7 8 9 10 11 13 14 14 13 12 11 12 12 13 14 16
13 17 21 25 31 34 35 32 30 25 18 11 10 12 12 9 7 6 5 4 2 1 1 4 6 9 9 7 8 8 10 11 12 14 15 15 14 9 11 13 13 12 11
13 15 18 21 27 27 27 32 30 25 17 14 13 14 12 10 8 7 5 4 2 1 2 4 6 8 10 11 8 8 9 10 10 13 17 17 16 12 11 11 11 10 10
10 14 18 21 21 21 28 32 29 22 17 16 15 13 11 10 9 7 6 4 3 1 1 3 5 6 8 11 12 8 8 9 9 9 12 17 16 15 10 10 10 11 12
16 15 15 16 19 23 27 30 25 21 16 16 11 11 11 10 10 8 6 4 3 3 3 3 3 4 6 9 11 6 7 8 9 10 10 12 17 16 14 13 12 12 14
11 11 14 17 22 24 26 27 23 17 14 13 12 13 13 12 11 9 6 3 2 3 4 3 3 3 3 6 12 8 8 9 11 11 12 13 14 16 15 15 16 17 14
11 15 18 20 22 23 25 24 20 17 15 14 15 15 13 14 12 10 8 5 1 3 4 4 4 3 4 5 7 9 9 10 11 11 12 12 13 13 13 14 16 14 13
12 14 18 19 20 23 23 20 18 17 16 17 17 14 15 14 12 10 8 6 2 2 3 3 3 4 5 5 5 8 9 9 10 11 11 11 11 12 12 14 14 14 17
14 14 16 19 21 22 20 17 17 16 17 19 17 17 17 16 14 12 9 7 3 2 1 2 2 2 5 6 6 5 7 8 9 9 9 8 9 11 13 13 15 17 19
14 15 17 20 21 21 20 18 15 17 20 18 18 19 18 16 15 12 8 6 6 3 3 3 1 1 4 7 7 6 6 7 7 8 7 6 8 10 13 15 17 18 18
14 18 19 20 20 19 18 16 17 19 18 20 21 20 18 17 14 13 12 9 5 5 4 4 2 2 1 3 2 5 6 7 7 5 5 8 10 13 15 16 17 18 20